sat.trackr.live / text

‹ back to catalog

BEIDOU-2 IGSO-5 (C10)

NORAD 37948 · 2011-073A

PAYLOAD ACTIVE UNKNOWN

§ Identity

Operator
Country
PRC
Launch date
2011-12-01
Launch site
XICLF
Launch vehicle
Mass (kg)
RCS (m²)
12.59

Purposes: comms, nav

External: N2YO · Heavens-Above · Gunter

§ Orbital elements

Epoch: 2026-09-10T19:05:16.843776Z

Period
1,435.99 min
Inclination
47.5267°
Eccentricity
0.0116651
Mean motion
1.00279182 rev/d
Perigee alt
35,292.7 km
Apogee alt
36,276.4 km
Semi-major
42,162.7 km
B*
0.0000e+0
RAAN
270.4734°
Arg perigee
224.1508°
Mean anomaly
237.2700°
Rev number
5,399

§ Raw data

BEIDOU-2 IGSO-5 (C10)1 37948U 11073A   26253.79533384 -.00000160  00000+0  00000+0 0  99992 37948  47.5267 270.4734 0116651 224.1508 237.2700  1.00279182 53990

JSON: /api/v1/satellites/37948 · /tle

For live sub-satellite position, see the globe view (requires WebGL).

§ Visibility from observer

Set your observer location to see the next 7 days of passes ≥ 10°. The values pass through the URL so the page stays shareable.

No JS? Fill the form by hand. The geolocation button needs JavaScript.